Probability
23 24 25 23 23 27 34 38 37 37 37 35 32 29 25 23 23 23 21 19 18 16 15 17 22 24 23 24 24 22 18 15 12 9 7 7 9 11 11 11 10 8 6
20 23 24 23 23 27 33 38 40 39 37 35 32 29 27 25 23 21 20 18 16 15 15 17 21 21 20 21 23 21 17 14 13 10 8 7 8 10 9 9 8 8 8
18 20 22 23 23 25 30 36 40 41 38 33 28 26 24 22 19 18 18 17 14 13 15 17 18 18 18 19 21 19 16 14 13 11 10 8 8 8 7 6 6 8 9
16 18 20 20 20 21 25 31 35 37 35 30 24 21 19 16 14 16 18 18 15 14 16 18 17 16 17 19 19 18 17 15 13 12 11 9 8 7 6 4 4 6 9
15 15 16 17 16 18 22 26 29 30 30 26 21 18 14 11 11 14 18 20 18 16 15 16 16 16 17 19 19 19 18 17 14 12 11 9 7 5 4 3 3 5 6
14 14 15 16 16 17 19 22 25 26 25 21 17 14 10 8 9 11 14 15 15 14 13 12 14 16 18 21 22 22 20 17 14 11 9 7 5 4 3 2 1 3 3
14 15 15 16 16 16 16 18 21 22 19 16 13 10 8 7 7 7 8 8 9 11 11 9 11 14 16 19 21 23 21 16 11 8 6 3 3 4 4 2 1 1 1
13 14 15 16 16 14 12 13 16 16 14 12 11 10 9 8 8 7 5 4 5 7 8 9 10 12 12 14 17 20 18 12 8 5 3 2 2 5 7 5 2 0 0
12 11 13 15 16 14 12 11 12 12 12 10 9 9 10 9 9 7 6 5 4 4 6 9 11 10 10 11 14 15 13 9 7 4 1 2 3 6 7 5 3 1 0
11 10 10 13 16 14 12 10 10 10 9 8 7 8 9 10 9 9 8 8 6 5 6 9 10 9 8 11 11 10 8 7 6 3 1 2 3 4 4 4 3 1 0
10 9 8 11 13 12 11 9 9 8 7 7 7 7 7 9 9 9 9 9 9 8 7 8 7 5 5 7 6 5 5 5 3 2 1 1 1 2 2 3 3 3 2
10 8 8 9 10 9 8 8 8 7 7 7 7 7 7 7 8 8 9 10 10 10 9 8 6 3 2 2 3 4 4 3 2 1 0 0 0 1 1 2 4 4 4
7 7 6 7 8 8 7 7 7 7 7 7 8 8 7 6 6 8 9 10 11 12 11 10 8 4 1 1 2 3 3 3 2 1 1 0 0 1 1 2 3 4 4
6 7 8 9 11 11 8 7 6 7 7 7 7 7 6 5 5 7 9 10 11 12 11 9 7 5 2 1 1 1 1 2 2 2 2 1 0 1 1 1 1 2 2
5 8 11 12 13 13 11 9 7 6 6 5 5 5 5 4 5 6 7 9 11 10 9 8 5 3 2 1 0 0 0 1 2 3 2 1 0 0 0 0 0 1 1
3 7 12 14 15 14 13 11 8 5 4 4 4 4 5 4 4 4 5 6 8 9 9 7 4 2 1 0 0 0 0 1 2 2 1 1 1 0 0 0 0 0 0
3 6 11 15 16 14 13 11 9 7 5 4 3 3 4 3 3 3 3 4 6 8 8 8 5 2 0 0 0 0 0 0 1 2 2 1 1 0 0 0 0 0 0
5 7 10 13 14 14 12 11 10 8 6 4 3 3 3 3 3 3 3 5 6 7 8 8 6 2 0 0 0 0 0 0 0 1 2 2 1 0 0 0 0 0 0
9 9 9 9 11 13 13 11 9 6 5 4 3 3 3 3 3 4 5 7 8 8 8 7 5 2 0 0 0 0 0 0 0 0 1 2 1 0 0 0 0 0 0
10 9 8 7 10 11 11 10 8 6 4 4 3 3 4 4 4 6 8 9 10 9 8 7 5 2 0 0 0 0 0 0 0 0 0 1 1 0 0 0 0 0 0
8 8 7 8 9 10 10 9 8 7 6 5 4 5 6 6 6 8 11 13 12 10 8 7 5 2 0 0 0 0 0 0 0 0 0 0 0 0 0 0 0 0 0
5 5 6 8 10 10 10 10 10 9 9 8 8 8 9 8 8 8 10 13 13 10 8 6 4 2 0 0 0 0 0 0 0 0 0 0 0 0 0 0 0 0 0
4 4 4 6 9 10 10 9 10 11 10 10 9 9 9 9 8 6 6 9 10 9 6 4 2 1 0 0 0 0 0 0 0 0 0 0 0 0 0 0 0 0 0
5 4 3 4 6 7 7 7 7 8 9 8 7 7 7 6 6 5 4 5 7 7 6 5 2 0 0 0 0 0 0 0 0 0 0 0 0 0 0 0 0 0 0
6 5 4 3 3 4 4 4 5 5 6 5 5 5 5 4 4 5 4 4 5 5 5 4 2 1 1 0 0 0 0 0 0 0 0 1 0 0 0 0 0 0 0
5 6 5 4 3 3 3 3 4 5 5 5 4 4 4 4 4 4 4 4 4 4 3 2 1 1 1 0 0 0 0 0 0 0 0 1 0 0 0 0 0 0 0
Wind_Speed
4 4 4 5 5 4 3 3 2 2 2 2 1 1 1 1 1 1 1 1 1 1 1 2 2 2 2 2 3 2 3 3 3 3 4 3 4 3 3 3 3 3 4
4 5 4 3 3 3 2 2 2 2 2 1 1 1 1 1 1 1 1 2 2 2 2 1 2 2 2 3 3 2 2 3 2 2 3 2 2 3 4 3 4 3 3
4 4 4 4 3 2 2 2 2 1 2 2 1 1 1 2 1 1 1 2 2 2 2 1 2 2 2 2 3 3 3 2 2 2 1 2 2 2 2 4 2 2 3
4 4 3 4 4 4 3 2 1 1 1 2 2 2 2 2 2 2 2 2 2 2 2 2 2 2 2 3 3 2 2 3 2 2 3 3 2 2 2 2 2 3 3
4 4 4 4 5 4 4 3 2 2 2 2 2 3 3 2 2 2 2 3 2 2 2 2 2 3 2 3 3 2 2 2 2 2 2 2 2 3 2 3 3 2 2
5 5 4 4 3 3 3 3 2 2 3 3 3 3 4 4 4 4 3 3 2 2 2 2 2 3 3 3 3 2 3 2 2 2 2 2 1 2 2 3 3 3 3
5 4 4 4 3 3 3 2 2 2 3 3 4 3 4 4 4 4 3 3 3 2 2 2 3 3 3 4 3 3 3 3 3 3 2 2 2 2 2 3 3 3 3
6 5 4 3 3 3 2 2 2 2 2 3 3 4 4 3 3 3 4 4 3 2 2 3 3 4 4 4 3 2 3 3 3 4 3 2 2 2 2 2 3 3 3
6 5 5 4 3 3 2 2 2 2 2 3 4 4 3 3 4 4 4 3 3 3 3 3 3 3 4 4 3 2 3 2 3 2 3 2 2 1 2 2 2 2 4
6 6 5 4 3 2 1 1 2 2 3 4 4 4 3 4 4 4 4 3 3 3 4 4 3 3 3 3 2 2 3 2 2 2 2 2 1 1 2 2 2 2 3
5 5 5 5 3 3 3 2 2 2 3 4 4 4 4 4 4 4 4 4 3 4 4 4 3 3 3 3 2 3 3 2 2 2 2 2 2 2 2 2 2 2 2
6 6 6 6 5 4 4 3 3 4 3 3 3 4 4 4 4 4 4 4 4 4 4 3 3 3 3 2 2 3 3 2 2 2 2 2 2 2 2 2 3 3 3
6 6 6 5 5 5 4 4 4 4 4 4 4 4 5 4 4 4 4 3 3 3 3 3 3 2 2 2 2 3 2 2 2 2 2 2 2 2 2 3 3 2 3
6 6 6 5 5 5 5 5 5 5 5 5 5 5 4 4 4 3 2 3 2 2 2 2 2 2 2 2 2 1 1 1 2 2 2 2 2 2 3 3 3 3 3
7 7 6 6 5 5 5 5 6 6 6 5 5 4 4 3 3 2 2 2 2 3 2 1 1 2 1 1 1 2 2 2 2 2 2 2 1 2 3 3 2 3 3
8 7 7 6 6 6 6 6 6 6 6 5 5 5 4 3 3 3 2 2 3 2 2 1 1 2 1 1 1 2 3 2 2 2 2 2 2 2 2 3 3 3 3
8 8 7 6 6 6 5 5 6 5 5 5 4 4 3 3 3 4 3 3 3 2 2 2 2 1 1 1 0 1 3 3 3 2 2 3 2 0 1 1 2 3 5
9 8 7 6 5 6 5 5 6 5 5 5 4 4 3 3 3 3 3 3 2 2 2 2 1 0 0 1 1 2 3 3 3 2 2 1 1 2 2 2 2 3 3
8 7 6 6 5 6 5 6 6 6 6 5 5 5 4 4 3 3 3 2 2 2 2 2 1 1 1 1 1 2 2 2 3 2 2 0 1 1 2 2 3 3 3
7 7 7 6 5 5 5 6 6 6 6 6 5 5 4 4 4 3 3 2 2 3 2 2 1 1 1 2 2 3 2 2 2 2 0 1 0 0 1 2 2 3 4
7 7 7 6 5 5 5 6 6 6 6 6 5 5 4 4 3 2 2 2 3 3 3 2 1 1 1 2 3 2 1 2 2 2 1 0 0 1 3 3 3 4 5
8 8 7 6 5 5 6 6 6 6 6 6 6 5 4 5 4 2 2 2 2 2 3 2 1 1 1 2 3 3 3 3 2 2 1 1 2 3 4 4 4 6 6
7 7 8 7 6 5 5 6 6 6 6 6 5 5 5 4 3 3 3 2 2 2 2 2 1 0 0 1 1 3 3 4 3 2 3 3 4 5 4 5 6 5 3
7 7 8 8 7 6 5 5 6 5 6 6 5 5 4 4 4 3 2 2 2 2 2 2 2 1 1 1 1 0 1 2 2 3 4 6 6 5 5 4 3 3 2
6 6 7 7 8 7 6 6 6 5 6 6 5 5 4 4 3 2 2 2 1 1 2 2 2 2 2 2 1 1 1 1 1 3 3 3 3 2 2 2 2 1 1
6 7 7 8 7 7 7 6 6 5 5 5 5 5 4 4 3 2 1 1 2 1 1 1 1 0 0 0 1 1 2 2 2 1 2 3 2 2 2 1 1 1 1
Wind_Direction
61 67 66 70 73 67 59 55 44 45 28 25 354 331 320 315 279 243 282 306 291 276 247 276 273 259 243 255 259 261 258 262 262 276 282 265 245 228 233 235 238 228 227
47 48 52 57 81 92 86 86 59 36 6 17 312 276 302 284 257 227 223 245 251 261 251 248 287 278 263 268 260 262 257 264 254 269 293 286 267 253 239 221 225 234 239
50 43 35 32 42 66 68 58 61 41 352 340 302 321 307 287 303 298 270 260 251 247 271 264 271 280 258 263 264 258 252 259 263 230 238 263 270 298 253 250 242 231 231
54 49 22 20 18 33 46 49 62 49 351 319 324 314 297 301 305 298 280 290 278 268 252 251 264 271 268 267 261 254 260 251 263 252 237 247 285 286 293 272 260 248 241
37 35 32 28 18 16 38 36 33 11 346 308 297 294 305 306 302 298 290 275 261 252 255 237 253 265 266 267 266 265 251 241 246 259 265 272 274 262 274 287 284 277 262
30 32 30 32 20 17 26 29 34 11 348 333 325 308 302 300 294 286 285 278 260 249 255 242 252 255 254 257 256 246 246 244 248 252 255 259 269 276 271 279 282 277 273
31 29 23 8 13 17 11 12 28 4 342 334 327 312 299 289 280 282 287 287 282 267 268 270 249 249 246 245 244 241 240 236 240 241 245 245 245 262 266 269 278 288 287
20 11 8 350 355 2 3 2 4 338 331 333 320 306 297 287 288 292 290 285 282 279 268 261 254 253 251 256 246 246 244 240 240 251 252 251 250 253 261 264 275 291 290
12 0 358 351 358 355 357 352 350 326 325 325 315 303 301 300 296 289 276 281 285 282 282 271 262 255 251 254 241 239 248 247 242 251 258 263 267 290 288 281 267 274 288
2 353 348 347 359 0 9 9 352 333 322 319 318 321 315 304 296 290 288 284 283 286 284 266 258 256 251 251 243 242 242 245 250 249 255 264 274 281 282 287 288 274 268
358 345 341 349 8 6 1 4 357 328 320 320 325 325 313 303 296 284 281 279 274 275 275 271 265 265 258 247 243 246 242 243 255 266 261 257 264 282 286 284 282 276 271
355 356 357 6 1 357 355 354 344 328 321 322 325 312 309 305 296 290 281 270 266 266 266 268 270 268 271 259 248 253 252 249 251 253 251 250 267 288 292 291 288 284 272
354 354 2 5 354 348 348 344 333 324 320 322 320 318 314 309 302 295 289 279 269 263 264 268 275 281 280 270 251 251 256 265 268 257 246 249 256 274 274 275 278 282 290
355 360 3 4 360 351 343 341 332 326 319 318 320 320 316 308 307 299 291 295 287 273 269 270 282 290 301 312 302 283 269 275 281 276 263 251 251 267 278 279 277 283 286
355 359 3 3 357 345 340 342 331 325 322 322 320 320 319 325 321 324 328 306 293 291 287 293 298 297 286 314 335 304 284 274 272 276 261 253 244 266 279 288 295 296 294
349 354 359 355 349 339 338 340 334 328 327 326 318 319 329 330 327 330 328 319 313 314 308 289 280 281 292 27 20 319 298 286 276 273 273 257 232 233 264 277 282 284 291
346 349 351 348 341 336 340 335 325 326 323 322 317 312 324 328 336 337 330 322 316 310 303 287 266 258 76 82 88 314 284 282 282 275 282 291 318 12 338 303 289 294 278
350 352 346 343 337 333 335 327 323 324 321 320 316 319 323 326 331 332 329 323 314 297 279 270 266 167 331 260 248 274 261 278 281 279 276 272 309 350 1 325 334 327 310
353 347 338 338 334 334 335 328 322 321 320 323 327 331 328 327 323 324 321 300 294 285 269 262 252 231 220 242 258 267 263 270 281 279 293 262 114 46 356 338 333 322 312
353 345 337 337 338 336 333 325 321 322 323 326 325 326 325 321 320 318 314 306 285 275 276 272 254 233 215 216 247 259 261 285 292 280 254 71 121 146 305 309 311 308 309
346 340 335 332 329 327 325 320 323 325 321 318 317 317 314 307 298 297 299 291 280 284 280 280 264 225 205 201 231 230 249 285 299 313 336 39 171 275 290 290 284 283 293
345 343 334 330 327 326 324 323 322 320 320 316 316 315 313 313 321 323 302 284 278 278 273 263 258 221 202 197 209 221 234 279 305 310 329 340 313 305 296 290 287 292 296
342 340 335 332 328 325 325 321 319 321 322 321 321 321 325 324 321 315 305 296 295 286 293 293 289 320 72 106 134 208 246 268 270 288 297 293 284 292 284 269 278 287 282
338 336 333 328 325 325 325 323 322 323 319 319 319 318 318 315 316 311 308 315 315 312 315 320 334 1 15 48 55 160 229 262 268 288 289 281 266 257 261 270 261 252 260
333 330 325 322 324 326 328 327 324 324 320 319 319 315 308 305 309 312 328 327 339 314 314 336 351 360 3 10 3 319 332 332 350 315 289 276 268 256 250 257 265 262 256
324 322 322 323 325 325 324 324 323 321 318 315 313 310 310 305 293 283 296 335 243 234 169 263 263 356 138 91 6 342 329 314 324 309 283 286 290 297 281 275 291 326 352